DW1347 Weather Reports


time (UTC)temp
C
wind
direction
speed
KPH
gust
KPH
rain 1hr
cm
rain 24hr
cm
rain mn
cm
humidity
%
barometer
mb
20210801210602 21 331 3.2 3.2 0.00 0.00 0.00 50 1038.1
20210801210101 20 160 3.2 3.2 0.00 0.00 0.00 52 1038.1
20210801205600 20 11 1.6 3.2 0.00 0.00 0.00 52 1038.2
20210801205059 21 258 4.8 4.8 0.00 0.00 0.00 53 1038.0
20210801204559 20 290 0.0 0.0 0.00 0.00 0.00 53 1038.2
20210801204059 18 255 4.8 9.7 0.00 0.00 0.00 58 1038.2
20210801203557 20 206 3.2 3.2 0.00 0.00 0.00 57 1038.4
20210801203055 20 195 3.2 4.8 0.00 0.00 0.00 55 1038.2
20210801202553 20 6 4.8 8.0 0.00 0.00 0.00 57 1038.4
20210801202050 19 149 8.0 9.7 0.00 0.00 0.00 58 1038.5
20210801201549 20 46 1.6 1.6 0.00 0.00 0.00 58 1038.5
20210801201048 20 135 1.6 1.6 0.00 0.00 0.00 58 1038.5
20210801200547 20 98 8.0 11.3 0.00 0.00 0.00 59 1038.7
20210801200045 20 70 8.0 9.7 0.00 0.00 0.00 59 1038.6
20210801195541 19 197 3.2 3.2 0.00 0.00 0.00 57 1038.6
20210801195040 20 350 4.8 4.8 0.00 0.00 0.00 58 1038.7
20210801194539 20 342 4.8 8.0 0.00 0.00 0.00 57 1038.6
20210801194036 20 234 1.6 1.6 0.00 0.00 0.00 60 1038.9
20210801193534 18 197 3.2 4.8 0.00 0.00 0.00 59 1039.1
20210801193033 18 41 4.8 8.0 0.00 0.00 0.00 59 1038.6
20210801192532 18 111 4.8 8.0 0.00 0.00 0.00 59 1039.1
20210801192031 18 224 0.0 0.0 0.00 0.00 0.00 61 1039.0
20210801191528 18 288 1.6 1.6 0.00 0.00 0.00 61 1039.4
20210801191027 18 15 3.2 4.8 0.00 0.00 0.00 61 1039.2
20210801190525 18 308 1.6 1.6 0.00 0.00 0.00 65 1039.5
20210801190025 17 61 1.6 8.0 0.00 0.00 0.00 66 1039.5
20210801185523 17 108 6.4 9.7 0.00 0.00 0.00 65 1039.2
20210801185021 17 117 8.0 9.7 0.00 0.00 0.00 69 1039.6
20210801184519 17 78 3.2 3.2 0.00 0.00 0.00 68 1039.8
20210801184018 17 90 8.0 9.7 0.00 0.00 0.00 68 1039.8
20210801183517 18 159 3.2 3.2 0.00 0.00 0.00 63 1039.9
20210801183016 17 30 4.8 8.0 0.00 0.00 0.00 63 1040.0
20210801182514 17 296 3.2 3.2 0.00 0.00 0.00 64 1040.1
20210801182012 17 69 1.6 3.2 0.00 0.00 0.00 63 1040.0
20210801181512 17 246 0.0 1.6 0.00 0.00 0.00 65 1039.8
20210801181010 18 126 4.8 9.7 0.00 0.00 0.00 62 1039.9
20210801180509 17 38 6.4 8.0 0.00 0.00 0.00 61 1039.9
20210801180009 18 50 3.2 3.2 0.00 0.00 0.00 60 1039.9
20210801175507 18 134 4.8 4.8 0.00 0.00 0.00 56 1040.3
20210801175006 17 161 1.6 1.6 0.00 0.00 0.00 59 1040.3
20210801174502 17 336 3.2 4.8 0.00 0.00 0.00 58 1040.1
20210801174000 17 124 4.8 4.8 0.00 0.00 0.00 58 1040.3
20210801173459 17 238 0.0 0.0 0.00 0.00 0.00 57 1040.4
20210801172956 18 312 3.2 3.2 0.00 0.00 0.00 57 1040.6
20210801172456 16 244 1.6 1.6 0.00 0.00 0.00 61 1040.5
20210801171955 17 298 1.6 3.2 0.00 0.00 0.00 60 1040.4
20210801171454 17 279 0.0 0.0 0.00 0.00 0.00 60 1040.4
20210801170952 17 244 0.0 0.0 0.00 0.00 0.00 59 1040.5
20210801170451 16 146 1.6 3.2 0.00 0.00 0.00 59 1040.4
20210801165950 16 331 1.6 1.6 0.00 0.00 0.00 59 1040.8
20210801165447 16 299 1.6 1.6 0.00 0.00 0.00 61 1040.6
20210801164946 17 246 1.6 1.6 0.00 0.00 0.00 56 1040.5
20210801164444 17 215 0.0 0.0 0.00 0.00 0.00 64 1040.4
20210801163944 17 233 0.0 0.0 0.00 0.00 0.00 61 1040.5
20210801163442 16 242 0.0 0.0 0.00 0.00 0.00 61 1040.8
20210801162941 17 243 0.0 0.0 0.00 0.00 0.00 66 1040.4
20210801162439 16 231 0.0 0.0 0.00 0.00 0.00 61 1040.6
20210801161937 16 259 1.6 3.2 0.00 0.00 0.00 60 1040.4
20210801161436 17 255 0.0 0.0 0.00 0.00 0.00 59 1040.4
20210801160935 17 243 0.0 0.0 0.00 0.00 0.00 64 1040.3
20210801160433 17 231 0.0 0.0 0.00 0.00 0.00 68 1040.3
20210801155932 16 232 0.0 0.0 0.00 0.00 0.00 65 1040.4
20210801155428 16 240 0.0 0.0 0.00 0.00 0.00 71 1040.5
20210801154927 15 238 0.0 0.0 0.00 0.00 0.00 77 1040.1
20210801154425 15 321 0.0 0.0 0.00 0.00 0.00 82 1040.1
20210801153923 15 251 0.0 1.6 0.00 0.00 0.00 84 1040.5
20210801153421 15 265 1.6 1.6 0.00 0.00 0.00 84 1040.1
20210801152919 15 241 0.0 0.0 0.00 0.00 0.00 83 1040.4
20210801152418 15 247 1.6 1.6 0.00 0.00 0.00 89 1040.3
20210801151916 14 235 0.0 0.0 0.00 0.00 0.00 87 1040.4
20210801151413 14 247 0.0 0.0 0.00 0.00 0.00 91 1040.1
20210801150912 13 243 0.0 0.0 0.00 0.00 0.00 95 1040.5
20210801150409 13 236 0.0 0.0 0.00 0.00 0.00 99 1040.1
20210801145909 13 241 0.0 0.0 0.00 0.00 0.00 99 1040.1
20210801145404 13 246 0.0 0.0 0.00 0.00 0.00 99 1040.1
20210801144903 13 258 0.0 0.0 0.00 0.00 0.00 99 1040.0
20210801144401 12 250 0.0 0.0 0.00 0.00 0.00 99 1040.4
20210801143902 12 244 0.0 0.0 0.00 0.00 0.00 99 1040.0
20210801143400 12 242 0.0 0.0 0.00 0.00 0.00 99 1040.5
20210801142857 12 256 0.0 0.0 0.00 0.00 0.00 99 1040.1
20210801142356 12 248 0.0 0.0 0.00 0.00 0.00 99 1040.3
20210801141853 12 236 0.0 0.0 0.00 0.00 0.00 99 1040.6
20210801141351 11 230 0.0 0.0 0.00 0.00 0.00 99 1040.4
20210801140849 11 237 0.0 0.0 0.00 0.00 0.00 99 1040.5
20210801140349 11 235 0.0 0.0 0.00 0.00 0.00 99 1040.5
20210801135848 11 237 0.0 0.0 0.00 0.00 0.00 99 1040.1
20210801135346 11 230 0.0 0.0 0.00 0.00 0.00 99 1040.4
20210801134845 11 218 0.0 0.0 0.00 0.00 0.00 99 1040.4
20210801134341 11 239 0.0 0.0 0.00 0.00 0.00 99 1040.3
20210801133840 11 233 0.0 0.0 0.00 0.00 0.00 99 1040.3
20210801133338 11 233 0.0 0.0 0.00 0.00 0.00 99 1040.3
20210801132836 11 239 0.0 0.0 0.00 0.00 0.00 99 1040.0
20210801132335 11 241 0.0 0.0 0.00 0.00 0.00 99 1040.0
20210801131833 11 236 0.0 0.0 0.00 0.00 0.00 99 1040.0
20210801131332 11 233 0.0 0.0 0.00 0.00 0.00 99 1040.0
20210801130830 11 248 0.0 0.0 0.00 0.00 0.00 99 1040.0
20210801130329 11 235 0.0 0.0 0.00 0.00 0.00 99 1040.0
20210801125828 11 244 0.0 0.0 0.00 0.00 0.00 99 1039.9
20210801125327 11 243 0.0 0.0 0.00 0.00 0.00 99 1039.8
20210801124826 11 236 0.0 0.0 0.00 0.00 0.00 99 1039.6
20210801124325 11 223 0.0 0.0 0.00 0.00 0.00 99 1039.8
20210801123824 11 243 0.0 0.0 0.00 0.00 0.00 99 1039.8
20210801123322 11 249 0.0 0.0 0.00 0.00 0.00 99 1039.5
20210801122820 11 228 0.0 0.0 0.00 0.00 0.00 99 1039.8
20210801122318 11 222 0.0 0.0 0.00 0.00 0.00 99 1039.9
20210801121818 11 230 0.0 0.0 0.00 0.00 0.00 99 1039.8
20210801121317 11 236 0.0 0.0 0.00 0.00 0.00 99 1039.6
20210801120816 11 240 0.0 0.0 0.00 0.00 0.00 99 1039.5
20210801120316 10 239 0.0 0.0 0.00 0.00 0.00 99 1039.6
20210801115814 10 238 0.0 0.0 0.00 0.00 0.00 99 1039.8
20210801115314 10 234 0.0 0.0 0.00 0.00 0.00 99 1039.4
20210801114811 11 243 0.0 0.0 0.00 0.00 0.00 99 1039.2
20210801114310 11 227 0.0 0.0 0.00 0.00 0.00 99 1039.4
20210801113805 11 237 0.0 0.0 0.00 0.00 0.00 99 1039.2
20210801113303 11 245 0.0 0.0 0.00 0.00 0.00 99 1039.4
20210801112802 11 227 0.0 0.0 0.00 0.00 0.00 99 1039.8
20210801112301 11 227 0.0 0.0 0.00 0.00 0.00 99 1039.6
20210801111759 11 230 0.0 0.0 0.00 0.00 0.00 99 1039.5
20210801111257 11 236 0.0 0.0 0.00 0.00 0.00 99 1039.6
20210801110755 11 238 0.0 0.0 0.00 0.00 0.00 99 1039.4
20210801110255 11 235 0.0 0.0 0.00 0.00 0.00 99 1039.5
20210801105753 11 227 0.0 0.0 0.00 0.00 0.00 99 1039.4
20210801105250 11 237 0.0 0.0 0.00 0.00 0.00 99 1039.4
20210801104749 11 236 0.0 0.0 0.00 0.00 0.00 99 1039.1
20210801104249 11 238 0.0 0.0 0.00 0.00 0.00 99 1039.4
20210801103748 11 238 0.0 0.0 0.00 0.00 0.00 99 1039.4
20210801103247 11 241 0.0 0.0 0.00 0.00 0.00 99 1039.5
20210801102745 11 240 0.0 0.0 0.00 0.00 0.00 99 1039.4
20210801102246 11 243 0.0 0.0 0.00 0.00 0.00 99 1039.0
20210801101743 11 240 0.0 0.0 0.00 0.00 0.00 99 1039.1
20210801101242 11 237 0.0 0.0 0.00 0.00 0.00 99 1039.2
20210801100742 11 237 0.0 0.0 0.00 0.00 0.00 99 1038.9
20210801100241 11 231 0.0 0.0 0.00 0.00 0.00 99 1039.0
20210801095738 11 216 0.0 1.6 0.00 0.00 0.00 99 1039.2
20210801095237 11 233 0.0 0.0 0.00 0.00 0.00 99 1039.0
20210801094736 11 244 0.0 0.0 0.00 0.00 0.00 99 1039.1
20210801094234 11 226 0.0 0.0 0.00 0.00 0.00 99 1039.0
20210801093734 11 241 0.0 0.0 0.00 0.00 0.00 99 1038.9
20210801093233 11 242 0.0 0.0 0.00 0.00 0.00 99 1039.0
20210801092732 11 254 0.0 0.0 0.00 0.00 0.00 99 1039.1
20210801092232 11 235 0.0 0.0 0.00 0.00 0.00 99 1039.0
20210801091731 11 238 0.0 0.0 0.00 0.00 0.00 99 1039.1
20210801091228 11 229 0.0 0.0 0.00 0.00 0.00 99 1039.1
20210801090726 11 233 0.0 0.0 0.00 0.00 0.00 99 1039.0
20210801090225 11 233 0.0 0.0 0.00 0.00 0.00 99 1039.0
20210801085724 11 235 0.0 0.0 0.00 0.00 0.00 99 1039.2
20210801085222 11 241 0.0 0.0 0.00 0.00 0.00 99 1039.1
20210801084720 11 242 0.0 0.0 0.00 0.00 0.00 99 1039.0
20210801084218 11 231 0.0 0.0 0.00 0.00 0.00 99 1039.2
20210801083715 11 220 0.0 0.0 0.00 0.00 0.00 99 1039.0
20210801083214 11 228 0.0 0.0 0.00 0.00 0.00 99 1039.0
20210801082713 11 235 0.0 0.0 0.00 0.00 0.00 99 1038.9
20210801082213 11 244 0.0 0.0 0.00 0.00 0.00 99 1038.9
20210801081712 11 246 0.0 0.0 0.00 0.00 0.00 99 1039.2
20210801081211 11 239 0.0 0.0 0.00 0.00 0.00 99 1039.1
20210801080710 11 235 0.0 0.0 0.00 0.00 0.00 99 1039.4
20210801080209 11 241 0.0 0.0 0.00 0.00 0.00 99 1039.2
20210801075705 11 224 0.0 1.6 0.00 0.00 0.00 99 1039.4
20210801075204 11 222 0.0 0.0 0.00 0.00 0.00 99 1039.5
20210801074703 11 241 0.0 0.0 0.00 0.00 0.00 99 1039.4
20210801074202 11 230 0.0 0.0 0.00 0.00 0.00 99 1039.8
20210801073700 11 231 0.0 0.0 0.00 0.00 0.00 99 1039.8
20210801073200 11 221 0.0 0.0 0.00 0.00 0.00 99 1039.8
20210801072658 11 252 0.0 0.0 0.00 0.00 0.00 99 1039.8
20210801072157 11 241 0.0 0.0 0.00 0.00 0.00 99 1039.6
20210801071656 11 248 0.0 0.0 0.00 0.00 0.00 99 1039.6
20210801071154 11 226 0.0 0.0 0.00 0.00 0.00 99 1039.9
20210801070653 11 229 0.0 0.0 0.00 0.00 0.00 99 1040.1
20210801070152 11 238 0.0 0.0 0.00 0.00 0.00 99 1039.8
20210801065651 11 225 0.0 0.0 0.00 0.00 0.00 99 1040.1
20210801065150 11 248 0.0 0.0 0.00 0.00 0.00 99 1040.1
20210801064649 11 258 0.0 0.0 0.00 0.00 0.00 99 1040.3
20210801064148 11 246 0.0 0.0 0.00 0.00 0.00 99 1040.1
20210801063646 11 239 0.0 0.0 0.00 0.00 0.00 99 1040.1
20210801063144 11 247 0.0 0.0 0.00 0.00 0.00 99 1040.1
20210801062642 11 241 0.0 0.0 0.00 0.00 0.00 99 1040.0
20210801062141 11 240 0.0 0.0 0.00 0.00 0.00 99 1040.4
20210801061641 11 241 0.0 0.0 0.00 0.00 0.00 99 1040.3
20210801061141 11 239 0.0 0.0 0.00 0.00 0.00 99 1040.3
20210801060640 11 237 0.0 0.0 0.00 0.00 0.00 99 1040.3
20210801060140 11 241 0.0 0.0 0.00 0.00 0.00 99 1040.3
20210801055640 11 245 0.0 0.0 0.00 0.94 0.94 99 1040.0
20210801055139 11 224 0.0 0.0 0.00 0.94 0.94 99 1040.1
20210801054637 12 230 0.0 1.6 0.00 0.94 0.94 99 1040.3
20210801054135 12 241 0.0 0.0 0.00 0.94 0.94 99 1040.1
20210801053633 12 245 0.0 0.0 0.00 0.94 0.94 99 1040.4
20210801053132 12 251 0.0 0.0 0.00 0.94 0.94 99 1040.4
20210801052631 12 301 1.6 3.2 0.00 0.94 0.94 99 1040.3
20210801052129 12 199 0.0 0.0 0.00 0.94 0.94 99 1040.0
20210801051628 12 243 0.0 0.0 0.10 0.94 0.94 99 1040.0
20210801051126 12 240 0.0 0.0 0.28 0.94 0.94 99 1040.3
20210801050620 12 240 0.0 0.0 0.58 0.91 0.91 99 1040.4
20210801050116 12 235 0.0 0.0 0.89 0.89 0.89 99 1040.5
20210801045616 12 290 1.6 1.6 0.76 0.84 0.84 99 1040.5
20210801045115 12 241 0.0 0.0 0.46 0.74 0.74 99 1040.1
20210801044613 12 233 0.0 0.0 0.28 0.71 0.71 99 1040.3
20210801044112 12 241 0.0 0.0 0.10 0.66 0.66 99 1040.3
20210801043608 12 238 0.0 0.0 0.10 0.66 0.66 99 1040.1
20210801043107 12 237 0.0 0.0 0.00 0.64 0.64 99 1040.0
20210801042605 12 239 0.0 0.0 0.00 0.64 0.64 99 1040.1
20210801042104 12 239 0.0 0.0 0.18 0.64 0.64 99 1040.0
20210801041604 12 242 0.0 0.0 0.18 0.64 0.64 99 1040.0
20210801041103 12 237 0.0 0.0 0.00 0.61 0.61 99 1039.8
20210801040601 12 240 0.0 0.0 0.10 0.61 0.61 99 1039.6
20210801040058 12 246 0.0 0.0 0.00 0.58 0.58 99 1040.0
20210801035558 12 244 0.0 0.0 0.18 0.58 0.58 99 1040.0
20210801035057 12 251 0.0 0.0 0.18 0.58 0.58 99 1039.9
20210801034555 12 220 1.6 1.6 0.00 0.56 0.56 99 1039.9
20210801034050 12 227 0.0 0.0 0.00 0.56 0.56 99 1039.8
20210801033550 12 243 0.0 0.0 0.00 0.56 0.56 99 1039.9
20210801033049 12 235 0.0 0.0 0.00 0.56 0.56 99 1040.0
20210801032547 12 243 0.0 0.0 0.00 0.56 0.56 99 1039.8
20210801032046 12 245 0.0 0.0 0.00 0.56 0.56 99 1039.8
20210801031545 12 239 0.0 0.0 0.00 0.56 0.56 99 1039.6
20210801031040 12 243 0.0 0.0 0.00 0.56 0.56 99 1039.8
20210801030540 12 243 0.0 0.0 0.00 0.56 0.56 99 1039.8
20210801030036 12 245 0.0 0.0 0.00 0.56 0.56 99 1039.6
20210801025536 12 240 0.0 0.0 0.00 0.56 0.56 99 1039.5
20210801025034 12 235 0.0 0.0 0.00 0.56 0.56 99 1039.5
20210801024533 12 231 0.0 0.0 0.00 0.56 0.56 99 1039.6
20210801024033 12 232 0.0 0.0 0.00 0.56 0.56 99 1039.5
20210801023532 12 242 0.0 0.0 0.00 0.56 0.56 99 1039.4
20210801023030 12 235 0.0 0.0 0.00 0.56 0.56 99 1039.4
20210801022529 12 231 0.0 0.0 0.00 0.56 0.56 99 1039.1
20210801022028 12 232 0.0 0.0 0.00 0.56 0.56 99 1039.2
20210801021527 12 232 0.0 0.0 0.00 0.56 0.56 99 1039.2
20210801021025 12 231 0.0 0.0 0.00 0.56 0.56 99 1039.4
20210801020524 12 233 0.0 0.0 0.00 0.56 0.56 99 1039.4
20210801020022 12 233 0.0 0.0 0.00 0.56 0.56 99 1039.1
20210801015521 13 236 0.0 0.0 0.00 0.56 0.56 99 1039.0
20210801015020 13 235 0.0 0.0 0.00 0.56 0.56 99 1039.1
20210801014518 13 234 0.0 0.0 0.00 0.56 0.56 99 1039.0
20210801014016 13 245 0.0 0.0 0.00 0.56 0.56 99 1039.2
20210801013513 13 233 0.0 0.0 0.00 0.56 0.56 99 1039.1
20210801013010 13 245 0.0 0.0 0.10 0.56 0.56 99 1039.2
20210801012510 13 237 0.0 0.0 0.10 0.56 0.56 99 1039.0
20210801012009 13 235 0.0 0.0 0.00 0.53 0.53 99 1039.1
20210801011507 13 237 0.0 0.0 0.18 0.53 0.53 99 1039.2
20210801011007 13 241 0.0 0.0 0.18 0.53 0.53 99 1039.1
20210801010501 13 252 0.0 0.0 0.00 0.51 0.51 99 1039.4
20210801010000 13 247 0.0 0.0 0.10 0.51 0.51 99 1039.2
20210801005458 13 253 0.0 0.0 0.10 0.51 0.51 99 1039.1
20210801004957 13 254 0.0 0.0 0.00 0.48 0.48 99 1039.1
20210801004456 13 258 0.0 0.0 0.18 0.48 0.48 99 1039.0
20210801003955 13 238 0.0 0.0 0.36 0.48 0.48 99 1039.4
20210801003454 13 223 0.0 0.0 0.18 0.46 0.46 99 1039.0
20210801002953 13 255 0.0 0.0 0.28 0.41 0.41 99 1039.0
20210801002453 13 336 1.6 1.6 0.41 0.41 0.41 99 1038.9
20210801001953 13 298 4.8 4.8 0.10 0.38 0.38 99 1038.9
20210801001452 13 264 1.6 3.2 0.18 0.36 0.36 99 1038.9
20210801000950 13 256 0.0 0.0 0.28 0.36 0.36 98 1039.0
20210801000450 13 273 0.0 1.6 0.28 0.33 0.33 98 1039.0
20210731235947 13 255 0.0 0.0 0.46 0.30 0.30 98 1039.0
20210731235446 13 246 0.0 0.0 0.41 0.28 0.28 97 1038.9
20210731234944 13 249 0.0 0.0 0.28 0.23 0.23 97 1039.1
20210731234442 13 243 0.0 0.0 0.18 0.20 0.20 96 1038.7
20210731233932 13 243 0.0 0.0 0.10 0.18 0.18 96 1038.9
20210731233431 13 238 0.0 1.6 0.10 0.18 0.18 95 1038.7
20210731232929 13 226 0.0 1.6 0.18 0.15 0.15 94 1038.6
20210731232429 13 234 1.6 1.6 0.18 0.15 0.15 94 1038.6
20210731231928 14 243 1.6 3.2 0.00 0.13 0.13 95 1038.7
20210731231428 14 241 0.0 0.0 0.00 0.13 0.13 95 1038.7
20210731230927 14 239 0.0 0.0 0.00 0.13 0.13 94 1038.7
20210731230425 14 227 1.6 1.6 0.00 0.13 0.13 93 1038.7
20210731225924 15 223 3.2 3.2 0.00 0.13 0.13 94 1038.4
20210731225423 15 247 1.6 1.6 0.00 0.13 0.13 93 1038.5
20210731224923 15 245 0.0 0.0 0.00 0.13 0.13 93 1038.6
20210731224422 15 230 0.0 0.0 0.18 0.13 0.13 93 1038.2
20210731223921 15 222 1.6 1.6 0.18 0.13 0.13 91 1038.6
20210731223417 15 231 0.0 0.0 0.00 0.08 0.08 87 1038.4
20210731222917 15 358 3.2 3.2 0.00 0.08 0.08 85 1038.5
20210731222417 16 116 3.2 3.2 0.00 0.08 0.08 84 1038.5
20210731221907 16 311 1.6 1.6 0.00 0.08 0.08 84 1038.7
20210731221406 16 298 1.6 3.2 0.00 0.08 0.08 84 1038.7
20210731220904 16 240 0.0 1.6 0.00 0.08 0.08 86 1038.7
20210731220403 16 271 1.6 1.6 0.00 0.08 0.08 85 1038.5
20210731215902 16 10 4.8 8.0 0.00 0.08 0.08 84 1038.7
20210731215402 16 304 4.8 8.0 0.00 0.08 0.08 84 1038.5
20210731214857 16 299 3.2 3.2 0.00 0.08 0.08 85 1038.6
20210731214356 16 304 8.0 9.7 0.00 0.08 0.08 84 1038.5
20210731213853 15 304 8.0 11.3 0.00 0.08 0.08 85 1038.4
20210731213352 16 314 4.8 8.0 0.00 0.08 0.08 86 1038.6
20210731212850 16 316 1.6 3.2 0.00 0.08 0.08 85 1038.6
20210731212349 16 15 4.8 8.0 0.00 0.08 0.08 84 1038.4
20210731211848 16 252 1.6 1.6 0.00 0.08 0.08 84 1038.2
20210731211346 16 52 3.2 3.2 0.00 0.08 0.08 83 1038.5
20210731210844 16 293 3.2 3.2 0.00 0.08 0.08 81 1038.5